{"data":{"norad_id":63944,"intl_designator":"2025-098U","name":"STARLINK-33996","alt_names":[],"object_type":"PAYLOAD","status":"ACTIVE","operator":null,"country":"US","launch_date":"2025-05-13","launch_site_code":"AFWTR","launch_vehicle":null,"mission":null,"orbit_class":"UNKNOWN","rcs_meters":null,"size_class":null,"mass_kg":null,"dimensions":null,"purposes":["comms"],"wikipedia_slug":null,"has_3d_model":false,"image_url":null,"decayed_at":null,"tle_current":{"epoch":"2026-09-19T01:49:35.224032Z","epoch_age_seconds":270115,"freshness":"STALE","line1":"1 63944U 25098U   26262.07610213  .00009977  00000+0  35100-3 0  9991","line2":"2 63944  69.9989 144.7178 0003660 278.6605  81.4155 15.29584046 75571","mean_motion":15.29584046,"eccentricity":0.000366,"inclination_deg":69.9989,"raan_deg":144.7178,"arg_perigee_deg":278.6605,"mean_anomaly_deg":81.4155,"bstar":0.000351,"rev_number":7557,"period_min":94.143241344974,"perigee_km":474.54581397634,"apogee_km":479.56381438432,"semimajor_km":6855.1918141803,"source":"CELESTRAK","updated_at":"2026-09-21T09:00:35.152568Z"}}}